COMS 1
NORAD 36744 · 2010-032A
PAYLOAD ACTIVE UNKNOWN
§ Identity
- Operator
- —
- Country
- SKOR
- Launch date
- 2010-06-26
- Launch site
- FRGUI
- Launch vehicle
- —
- Mass (kg)
- —
- RCS (m²)
- 15.85
Purposes: comms, earth_obs
External: N2YO · Heavens-Above · Gunter
§ Orbital elements
Epoch: 2026-09-01T22:08:38.840064Z
- Period
- 1,452.09 min
- Inclination
- 4.9956°
- Eccentricity
- 0.0010500
- Mean motion
- 0.99167640 rev/d
- Perigee alt
- 36,054.4 km
- Apogee alt
- 36,143.6 km
- Semi-major
- 42,477.1 km
- B*
- 0.0000e+0
- RAAN
- 74.3909°
- Arg perigee
- 20.0050°
- Mean anomaly
- 347.0864°
- Rev number
- 5,185
§ Raw data
COMS 11 36744U 10032A 26244.92267176 -.00000267 00000+0 00000+0 0 99922 36744 4.9956 74.3909 0010500 20.0050 347.0864 0.99167640 51857
JSON: /api/v1/satellites/36744 · /tle
For live sub-satellite position, see the globe view (requires WebGL).
§ Visibility from observer
Set your observer location to see the next 7 days of passes ≥ 10°. The values pass through the URL so the page stays shareable.
No JS? Fill the form by hand. The geolocation button needs JavaScript.